Location: *
(50.3194°N, 7.1067°E)
Time: 17:41:51
(UTC+00:00)

DMSP B5D2-2 - Pass Details

Date: 22 September 2019
Orbit: 790 x 806 km, 98.4° (Epoch: 23 October)

Event Time Altitude Azimuth Distance (km) Brightness Sun altitude
Rises 19:48:31 0° 17° (NNE) 3,335 7.5 -21.9°
Reaches altitude 10° 19:50:56 10° 23° (NNE) 2,399 6.6 -22.3°
Enters shadow 19:56:01 53° 95° (E) 989 4.2 -23.0°
